Location: Palomar Mountain Lodge
(33.3110°N, 116.8495°W)
Time: 14:55:09
(UTC-07:00)

USA 81 - Pass Details

Date: 19 May 2017
Orbit: 785 x 788 km, 85.0° (Epoch: 19 May)

Event Time Altitude Azimuth Distance (km) Brightness Sun altitude
Exits shadow 20:59:55 15° 161° (SSE) 1,989 5.7 -14.5°
Maximum altitude 21:04:03 52° 89° (E) 973 4.2 -15.2°
Drops below altitude 10° 21:09:09 10° 15° (NNE) 2,351 6.8 -16.1°
Sets 21:11:34 0° 10° (N) 3,284 7.7 -16.5°
